Preview of NWS' New Version of Forecast
This preview is not operational and should not be used for support decisions.

Regional Weather Roundup (RWR)

Issued by National Weather Service (NWS)

                            
000
ASUS43 KBIS 252210
RWRND 

NORTH DAKOTA REGIONAL WEATHER ROUNDUP
NATIONAL WEATHER SERVICE BISMARCK ND
500 PM CDT SUN AUG 25 2019

NOTE: "FAIR" INDICATES FEW OR NO CLOUDS BELOW 12,000 FEET WITH NO
SIGNIFICANT WEATHER AND/OR OBSTRUCTIONS TO VISIBILITY.


NDZ001>003-009>011-017-252300-
NORTHWEST NORTH DAKOTA
  
CITY           SKY/WX    TMP DP  RH WIND       PRES   REMARKS
WILLISTON      MOSUNNY   79  53  40 NW20G33   29.72S                  
MINOT          SUNNY     80  59  48 CALM      29.65F                  
MINOT AFB      SUNNY     76  61  57 SW7       29.64F                  
$$
 
NDZ018>021-031>035-040>046-252300-
SOUTHWEST NORTH DAKOTA
  
CITY           SKY/WX    TMP DP  RH WIND       PRES   REMARKS
BISMARCK       MOSUNNY   64  58  80 E18       29.63F                  
DICKINSON      PTSUNNY   79  49  34 NW15G24   29.72R                  
GARRISON         N/A     82  62  50 VRB7      29.64F                  
HETTINGER ARPT MOSUNNY   81  51  35 W10       29.74F                  
$$
 
NDZ004>008-012>016-024-026-027-054-252300-
NORTHEAST NORTH DAKOTA
  
CITY           SKY/WX    TMP DP  RH WIND       PRES   REMARKS
GRAND FORKS    CLOUDY    68  61  78 S21G31    29.73F                  
DEVILS LAKE    CLOUDY    68  66  93 S15       29.70F                  
$$
 
NDZ022-023-025-028>030-036>039-047>053-252300-
SOUTHEAST NORTH DAKOTA
  
CITY           SKY/WX    TMP DP  RH WIND       PRES   REMARKS
FARGO          CLOUDY    67  61  81 S17G29    29.79S                  
JAMESTOWN      CLOUDY    69  67  93 S13G23    29.71F                  
$$